TimeEDT,TemperatureF,Dew PointF,Humidity,Sea Level PressureIn,VisibilityMPH,Wind Direction,Wind SpeedMPH,Gust SpeedMPH,PrecipitationIn,Events,Conditions,WindDirDegrees,DateUTC
12:53 AM,53.1,45.0,74,29.91,10.0,West,3.5,-,N/A,,Overcast,260,2013-10-07 04:53:00
1:53 AM,50.0,45.0,83,29.92,10.0,WSW,4.6,-,N/A,,Clear,240,2013-10-07 05:53:00
2:53 AM,50.0,44.1,80,29.92,10.0,SW,3.5,-,N/A,,Clear,220,2013-10-07 06:53:00
3:53 AM,46.9,45.0,93,29.91,10.0,Calm,Calm,-,N/A,,Clear,0,2013-10-07 07:53:00
4:53 AM,48.0,45.0,89,29.91,10.0,South,3.5,-,N/A,,Clear,180,2013-10-07 08:53:00
5:53 AM,48.9,45.0,86,29.91,10.0,South,3.5,-,N/A,,Overcast,180,2013-10-07 09:53:00
6:53 AM,50.0,44.1,80,29.94,10.0,WSW,4.6,-,N/A,,Overcast,250,2013-10-07 10:53:00
7:53 AM,50.0,44.1,80,29.96,10.0,SW,8.1,-,N/A,,Mostly Cloudy,230,2013-10-07 11:53:00
8:53 AM,51.1,45.0,80,29.98,10.0,WSW,8.1,-,N/A,,Clear,240,2013-10-07 12:53:00
9:53 AM,53.1,45.0,74,30.01,10.0,West,10.4,18.4,N/A,,Partly Cloudy,270,2013-10-07 13:53:00
10:53 AM,54.0,44.1,69,30.03,10.0,West,9.2,-,N/A,,Partly Cloudy,270,2013-10-07 14:53:00
11:53 AM,57.9,44.1,60,30.04,10.0,West,8.1,16.1,N/A,,Scattered Clouds,270,2013-10-07 15:53:00
12:53 PM,57.9,41.0,53,30.05,10.0,WNW,8.1,16.1,N/A,,Clear,290,2013-10-07 16:53:00
1:53 PM,61.0,42.1,50,30.05,10.0,Variable,5.8,-,N/A,,Scattered Clouds,0,2013-10-07 17:53:00
2:53 PM,62.1,42.1,48,30.04,10.0,WNW,8.1,-,N/A,,Clear,300,2013-10-07 18:53:00
3:53 PM,63.0,42.1,46,30.04,10.0,West,6.9,-,N/A,,Clear,280,2013-10-07 19:53:00
4:53 PM,64.0,42.1,45,30.04,10.0,NW,6.9,-,N/A,,Clear,320,2013-10-07 20:53:00
5:53 PM,64.0,43.0,46,30.06,10.0,NNW,6.9,-,N/A,,Clear,340,2013-10-07 21:53:00
6:53 PM,62.1,44.1,52,30.08,10.0,NNW,4.6,-,N/A,,Clear,330,2013-10-07 22:53:00
7:53 PM,59.0,45.0,60,30.09,10.0,Calm,Calm,-,N/A,,Clear,0,2013-10-07 23:53:00
8:53 PM,55.9,46.9,72,30.12,10.0,Calm,Calm,-,N/A,,Clear,0,2013-10-08 00:53:00
9:53 PM,54.0,48.0,80,30.15,10.0,Calm,Calm,-,N/A,,Clear,0,2013-10-08 01:53:00
10:53 PM,50.0,46.9,89,30.17,10.0,Calm,Calm,-,N/A,,Clear,0,2013-10-08 02:53:00
11:53 PM,48.9,46.0,90,30.18,10.0,Calm,Calm,-,N/A,,Clear,0,2013-10-08 03:53:00